Volver al catálogo

KUIPER-00493

ActivoComunicacionesLEO
NORAD 69596·PAYLOAD·🇺🇸 United States

Lanzado Jun 17, 2026 desde Guiana Space Centre

Loading…

Próximos Pases (próximas 24 horas)

TLE

ActualizadoSource: CelesTrak SupGP

Época: Sep 14, 2026, 14:53 UTC

1 69596C 26140E   26257.62054398  .00006718  00000+0  87946-3 0  2572
2 69596  51.9042 345.1987 0000525 268.2172 272.6958 14.79923549    18

Sigue KUIPER-00493 en tiempo real con AllMySat

Download on the App Store